Tracking 30696 objects as of 15-Jun-2025
HD Live streaming from Space Station
objects crossing your sky now

IRIDIUM 171

Track IRIDIUM 171 now!
10-day predictions
IRIDIUM 171 is classified as:


NORAD ID: 43929
Int'l Code: 2019-002H
Perigee: 783.2 km
Apogee: 786.4 km
Inclination: 86.4 °
Period: 100.4 minutes
Semi major axis: 7155 km
RCS: Unknown
Launch date: January 11, 2019
Source: United States (US)
Launch site: AIR FORCE WESTERN TEST RANGE (AFWTR)
Your satellite tracking list
Your tracking list is empty




NASA's NSSDC Master Catalog

Two Line Element Set (TLE):
1 43929U 19002H   25166.38822853  .00000076  00000-0  20124-4 0  9994
2 43929  86.3988 147.1755 0002184  78.9004 281.2438 14.34217578336387
Source of the keplerian elements: AFSPC